Location: Marcé
(47.5801°N, 0.3280°W)
Time: 10:31:24
(UTC+01:00)

deb Explorer IX - Pass Details

Date: 01 December 2021
Orbit: 544 x 1082 km, 38.8° (Epoch: 17 January)

Event Time Altitude Azimuth Distance (km) Brightness Sun altitude
Rises 14:08:17 0° 246° (WSW) 2,761 ? 18.4°
Reaches altitude 10° 14:10:53 10° 232° (SW) 1,826 ? 18.2°
Maximum altitude 14:14:14 24° 178° (S) 1,147 ? 18.0°
Drops below altitude 10° 14:17:33 10° 123° (ESE) 1,810 ? 17.8°
Sets 14:20:07 0° 109° (ESE) 2,730 ? 17.7°
